Regional Weather Roundup
Issued by NWS

Home | Current Version | Previous Version | Graphics & Text | Print | Product List | Glossary On
Versions: 1 2 3 4 5 6 7 8 9 10 11 12 13 14 15 16 17 18 19 20 21 22 23 24 25 26 27 28 29 30 31 32 33 34 35 36 37 38 39 40 41 42 43 44 45 46 47 48 49 50
000
ASUS43 KIND 051159
RWRIN

WEATHER ROUNDUP FOR INDIANA
NATIONAL WEATHER SERVICE INDIANAPOLIS IN
700 AM EST MON DEC 05 2016

NOTE: "FAIR" INDICATES FEW OR NO CLOUDS BELOW 12,000 FEET WITH NO
SIGNIFICANT WEATHER AND/OR OBSTRUCTIONS TO VISIBILITY.

* - STATION DOES NOT REPORT WEATHER SUCH AS PRECIPITATION OR FOG.

+ - STATION NOT QUALITY CONTROLLED BY THE NATIONAL WEATHER SERVICE.
    USE DATA WITH CAUTION...ESPECIALLY DEWPOINT AND RELATIVE
    HUMIDITY OBSERVATIONS.

INZ001>003-010>013-019-020-051300-
NORTHWEST INDIANA

CITY           SKY/WX    TMP DP  RH WIND       PRES   REMARKS
GARY /AIRPORT/ CLOUDY    34  32  93 W12       30.02S WCI  25

$$

LMZ046-743>745-051300-
SOUTHERN LAKE MICHIGAN

STATION/POSITION TIME  TEMP    WIND        PRES    WAVE
                       AIR SEA DIR/SP/G            HT
                 (UTC) (F)     (DEG/KT/KT) (MB)    (FT)
BURNS HARBOR     1140   34     230/  9/ 11 1016.9S

$$

INZ004-005-014>016-021>024-051300-
NORTH CENTRAL INDIANA

CITY           SKY/WX    TMP DP  RH WIND       PRES   REMARKS
GOSHEN         CLOUDY    33  28  81 W9        30.02R WCI  25
6HR MIN TEMP:  33; 6HR MAX TEMP:  34;

SOUTH BEND     CLOUDY    32  30  92 SW9       30.02R WCI  24
6HR MIN TEMP:  32; 6HR MAX TEMP:  33;


$$

INZ006>009-017-018-025>027-051300-
NORTHEAST INDIANA

CITY           SKY/WX    TMP DP  RH WIND       PRES   REMARKS
ANGOLA *+      CLOUDY    34  25  69 W7        30.00R WCI  28
FORT WAYNE     CLOUDY    33  30  88 W6        30.05R WCI  28
6HR MIN TEMP:  33; 6HR MAX TEMP:  34;

KENDALLVILLE + CLOUDY    32  30  93 W9        30.02R WCI  24

$$

INZ028-029-035-036-043>045-051>053-051300-
WEST CENTRAL INDIANA

CITY           SKY/WX    TMP DP  RH WIND       PRES   REMARKS
CRAWFORDSVL +  CLOUDY    32  32 100 SW3       30.07R
6HR MIN TEMP:  31; 6HR MAX TEMP:  32;

GREENCASTLE +  CLOUDY    32  32 100 CALM      30.07S
LAFAYETTE      CLOUDY    32  31  96 SW3       30.06R
6HR MIN TEMP:  32; 6HR MAX TEMP:  33;

TERRE HAUTE    CLOUDY    35  29  78 CALM      30.08S
6HR MIN TEMP:  34; 6HR MAX TEMP:  36;


$$

INZ030>032-037>040-046>048-054>057-064-065-051300-
CENTRAL INDIANA

CITY           SKY/WX    TMP DP  RH WIND       PRES   REMARKS
COLUMBUS       CLOUDY    36  32  87 CALM      30.08
INDIANAPOLIS   CLOUDY    34  30  85 W5        30.07R WCI  30
6HR MIN TEMP:  34; 6HR MAX TEMP:  35;

-EAGLE CREEK   CLOUDY    35  30  82 CALM      30.06R
6HR MIN TEMP:  34; 6HR MAX TEMP:  36;

KOKOMO +       CLOUDY    32  30  92 W9        30.05R WCI  24
6HR MIN TEMP:  32; 6HR MAX TEMP:  33;

SHELBYVILLE    CLOUDY    36  31  82 NW3       30.06S
6HR MIN TEMP:  36; 6HR MAX TEMP:  37;


$$

INZ033-034-041-042-049-050-058-059-051300-
EAST CENTRAL INDIANA

CITY           SKY/WX    TMP DP  RH WIND       PRES   REMARKS
MUNCIE         CLOUDY    35  31  85 W5        30.05S WCI  31
6HR MIN TEMP:  35; 6HR MAX TEMP:  35;


$$

INZ060-061-067>069-081>083-085>088-051300-
SOUTHWEST INDIANA

CITY           SKY/WX    TMP DP  RH WIND       PRES   REMARKS
EVANSVILLE     CLOUDY    38  32  79 E5        30.09S
6HR MIN TEMP:  38; 6HR MAX TEMP:  40;

HUNTINGBURG *+ CLOUDY    37  32  82 NE5       30.09S
6HR MIN TEMP:  37; 6HR MAX TEMP:  38;


$$

INZ062-063-066-070>080-084-089>092-051300-
SOUTH CENTRAL AND SOUTHEAST INDIANA

CITY           SKY/WX    TMP DP  RH WIND       PRES   REMARKS
BLOOMINGTON    CLOUDY    35  29  78 CALM      30.07S
6HR MIN TEMP:  35; 6HR MAX TEMP:  36;

MADISON *+     CLOUDY    37  32  81 CALM      30.10S
SEYMOUR +      CLOUDY    37  32  81 CALM      30.09R

$$





USA.gov is the U.S. government's official web portal to all federal, state and local government web resources and services.